Weather History for Montpelier, VT

Change the Weather History Date:

Monday, March 18, 2013

  Actual Average Record
Temperature  
Mean Temperature 17 °F 30 °F  
Max Temperature 32 °F 39 °F 77 °F (2012)
Min Temperature 2 °F 20 °F -16 °F (1956)
Degree Days  
Heating Degree Days 48 35  
Month to date heating degree days 610 696  
Since 1 July heating degree days 6159 6604  
Cooling Degree Days 0 0  
Month to date cooling degree days 0 0  
Year to date cooling degree days 0 0  
Moisture  
Dew Point 2 °F    
Average Humidity 58    
Maximum Humidity 91    
Minimum Humidity 25    
Precipitation  
Precipitation T in 0.07 in 0.64 in (1950)
Month to date precipitation 0.22 1.33  
Year to date precipitation 2.46 5.82  
Sea Level Pressure  
Sea Level Pressure 30.38 in    
Wind  
Wind Speed 2 mph (SSE)    
Max Wind Speed 20 mph    
Max Gust Speed 29 mph    
Visibility 10 miles    
Events      
T = Trace of Precipitation, MM = Missing Value Source: NWS Daily Summary

Daily Weather History Graph

Daily Weather History Graph

Search for Another Location

Airport:

Trip Planner

Search our weather history database for the weather conditions in past years. The results will help you decide how hot, cold, wet, or windy it might be!

Date:

Astronomy

Mar. 18, 2013 Rise Set
Actual Time 6:56 AM EDT 7:00 PM EDT
Civil Twilight 6:27 AM EDT 7:29 PM EDT
Nautical Twilight 5:54 AM EDT 8:03 PM EDT
Astronomical Twilight 5:19 AM EDT 8:37 PM EDT
Moon 10:41 AM EDT (3/18) 1:09 AM EDT (3/18)
Length of Visible Light 13h 01m
Length of Day
12h 03m
Waxing Crescent, 40% of the Moon is Illuminated
Mar 18
Waxing Crescent
Mar 19
First Quarter
Mar 27
Full
Apr 3
Last Quarter
Apr 10
New

Hourly Weather History & Observations

Time (EDT) Temp. Windchill Dew Point Humidity Pressure Visibility Wind Dir Wind Speed Gust Speed Precip Events Conditions
12:51 AM 10.0 °F 1.8 °F -0.9 °F 61% 30.40 in 10.0 mi Variable 4.6 mph - N/A   Clear
1:51 AM 7.0 °F - -2.0 °F 67% 30.42 in 10.0 mi Calm Calm - N/A   Clear
2:51 AM 6.1 °F - -2.0 °F 69% 30.42 in 10.0 mi Calm Calm - N/A   Clear
3:51 AM 5.0 °F - -2.0 °F 73% 30.42 in 10.0 mi Calm Calm - N/A   Clear
4:51 AM 3.9 °F - -0.9 °F 80% 30.44 in 10.0 mi Calm Calm - N/A   Clear
5:51 AM 1.9 °F - -2.0 °F 83% 30.45 in 10.0 mi Calm Calm - N/A   Clear
6:51 AM 1.9 °F - -2.0 °F 83% 30.48 in 10.0 mi Calm Calm - N/A   Clear
7:51 AM 3.9 °F - 1.0 °F 88% 30.49 in 10.0 mi Calm Calm - N/A   Clear
8:51 AM 8.1 °F - 3.9 °F 83% 30.49 in 10.0 mi Calm Calm - N/A   Clear
9:51 AM 14.0 °F - 3.9 °F 64% 30.50 in 10.0 mi Calm Calm - N/A   Clear
10:51 AM 19.9 °F - -0.9 °F 40% 30.48 in 10.0 mi Calm Calm - N/A   Clear
11:51 AM 21.9 °F - -0.9 °F 37% 30.47 in 10.0 mi Calm Calm - N/A   Clear
12:51 PM 24.1 °F - -0.9 °F 34% 30.45 in 10.0 mi Calm Calm - N/A   Clear
1:51 PM 27.0 °F 23.0 °F -0.9 °F 30% 30.41 in 10.0 mi Variable 3.5 mph - N/A   Clear
2:51 PM 30.2 °F - -2.2 °F 25% 30.30 in 10.0 mi Calm Calm - N/A   Clear
3:51 PM 30.9 °F 27.5 °F 1.0 °F 28% 30.34 in 10.0 mi Variable 3.5 mph - N/A   Clear
4:51 PM 30.9 °F - -0.0 °F 27% 30.33 in 10.0 mi Calm Calm - N/A   Clear
5:51 PM 30.9 °F 27.5 °F 5.0 °F 33% 30.29 in 10.0 mi SSE 3.5 mph - N/A   Clear
6:51 PM 28.9 °F - 6.1 °F 38% 30.28 in 10.0 mi Calm Calm - N/A   Clear
7:51 PM 28.0 °F 24.2 °F 7.0 °F 41% 30.28 in 10.0 mi South 3.5 mph - N/A   Clear
8:51 PM 27.0 °F - 6.1 °F 41% 30.26 in 10.0 mi Calm Calm - N/A   Clear
9:51 PM 27.0 °F - 12.0 °F 53% 30.26 in 10.0 mi Calm Calm - N/A   Mostly Cloudy
10:51 PM 28.9 °F 22.8 °F 6.1 °F 38% 30.22 in 10.0 mi SSE 5.8 mph - N/A   Overcast
11:51 PM 28.0 °F 15.7 °F 10.9 °F 49% 30.20 in 9.0 mi SSE 17.3 mph 28.8 mph N/A   Overcast